Regional Weather Roundup
Issued by NWS

Home | Current Version | Previous Version | Graphics & Text | Print | Product List | Glossary On
Versions: 1 2 3 4 5 6 7 8 9 10 11 12 13 14 15 16 17 18 19 20 21 22 23 24 25 26 27 28 29 30 31 32 33 34 35 36 37 38 39 40 41 42 43 44 45 46 47 48 49 50
000
ASUS43 KLOT 202006
RWRIL

ILLINOIS REGIONAL WEATHER ROUNDUP
NATIONAL WEATHER SERVICE CHICAGO/ROMEOVILLE IL
300 PM CDT MON OCT 20 2014

NOTE: "FAIR" INDICATES FEW OR NO CLOUDS BELOW 12,000 FEET WITH NO
SIGNIFICANT WEATHER AND/OR OBSTRUCTIONS TO VISIBILITY.

* THESE STATIONS ARE NOT UNDER NWS QUALITY CONTROL. THEY ALSO MAY NOT
  REPORT WEATHER SUCH AS PRECIPITATION OR FOG.

ILZ001-002-007-009-015-016-024-202100-
NORTHWEST ILLINOIS

CITY           SKY/WX    TMP DP  RH WIND       PRES   REMARKS
MOLINE         MOSUNNY   67  44  43 NW15G24   29.92S
STERLING*      MOSUNNY   66  45  45 NW18      29.90S
SAVANNA*       MOSUNNY   66  42  41 NW10      29.91S
$$

ILZ003-004-008-010-011-017-018-202100-
NORTH CENTRAL ILLINOIS

CITY           SKY/WX    TMP DP  RH WIND       PRES   REMARKS
ROCKFORD       MOSUNNY   63  41  44 NW15G24   29.90R
FREEPORT*      PTSUNNY   63  42  46 NW17G23   29.91S
ROCHELLE*      MOSUNNY   64  42  45 NW17G23   29.89R
DE KALB*       MOSUNNY   62  43  49 N15G22    29.88R
PERU*          MOSUNNY   66  43  42 NW23G29   29.89R
$$

ILZ005-006-012>014-019>023-202100-
NORTHEAST ILLINOIS

CITY           SKY/WX    TMP DP  RH WIND       PRES   REMARKS
CHICAGO-OHARE  PTSUNNY   64  45  49 NW18      29.84R
CHICAGO-MIDWAY PTSUNNY   65  48  54 NW14      29.85R
AURORA         MOSUNNY   65  43  44 N18       29.87R
LANSING*       CLOUDY    62  48  60 N7        29.85R
JOLIET*        MOSUNNY   64  45  50 NW9       29.86R
WAUKEGAN       PTSUNNY   55  46  71 N13       29.86R
DUPAGE AIRPORT MOSUNNY   64  44  48 N13       29.85R
KANKAKEE*      MOSUNNY   66  50  56 NW12G17   29.85S
WHEELING       MOSUNNY   65  46  50 NW16      29.86R
MORRIS*        PTSUNNY   68  48  49 NW8G16    29.85S
ROMEOVILLE*    MOSUNNY   65  43  44 NW12      29.85R
NORTHERLY ISL    N/A     55  49  80 N9          N/A
$$

LMZ740>746-202100-
SOUTHERN LAKE MICHIGAN

STATION/POSITION SKY/WX   TEMP    WIND        PRES    VSBY  WAVE
                          AIR SEA DIR/SP/G                  HT/PER
                          (F)     (DEG/KT/KT) (MB)    (MI)  (FT/S)
SOUTHERN BUOY              53 55  330/ 17/ 19 1010.9R         2/ 4
WAUKEGAN HARBOR            54      20/ 13/ 16   N/A
HARRISON CRIB              54      20/ 16/ 17   N/A
BURNHAM HARBOR             55      20/  8/ 11   N/A
CALUMET HARBOR             56     360/  9/ 11 1009.9R
MICHIGAN CITY              55     310/ 13/ 16   N/A
$$

ILZ025>027-034>036-040-047-049-050-058-095>099-202100-
WEST-CENTRAL ILLINOIS

CITY           SKY/WX    TMP DP  RH WIND       PRES   REMARKS
QUINCY         SUNNY     69  42  37 NW15      29.96F
GALESBURG*     SUNNY     66  45  47 NW17G24   29.93S
MACOMB*        SUNNY     67  43  41 NW14G23   29.97S
JACKSONVILLE*  SUNNY     72  43  35 NW16      29.93S
PITTSFIELD*    SUNNY     70  42  36 NW14G21   29.96S
$$

ILZ028>032-037-038-041>044-048-051>054-059>061-202100-
CENTRAL ILLINOIS

CITY           SKY/WX    TMP DP  RH WIND       PRES   REMARKS
PONTIAC        PTSUNNY   68  46  45 NW12G18   29.87S
BLOOMINGTON    MOSUNNY   66  47  50 NW15      29.91R
DECATUR        SUNNY     69  46  43 W20G25    29.89F
PEORIA         SUNNY     69  43  38 NW14G24   29.91S
LACON*         SUNNY     66  42  42 N12G26    29.89R
LINCOLN*       SUNNY     69  44  39 NW12G20   29.89S
SPRINGFIELD    SUNNY     71  42  35 NW10G20   29.92S
TAYLORVILLE    SUNNY     68  43  40 NW13G21   29.91S
$$

ILZ033-039-045-046-055>057-062-063-202100-
EAST-CENTRAL ILLINOIS

CITY           SKY/WX    TMP DP  RH WIND       PRES   REMARKS
CHAMPAIGN      MOSUNNY   68  46  45 NW16G24   29.88S
DANVILLE*      MOSUNNY   69  48  47 NW14G21   29.83R
RANTOUL*       SUNNY     70  43  37 NW13G18   29.87S
MATTOON        SUNNY     69  46  43 NW16G24   29.88S
PARIS*         SUNNY     70  46  42 W12G18    29.87S
$$

ILZ079-100>102-202100-
SOUTHWEST ILLINOIS

CITY           SKY/WX    TMP DP  RH WIND       PRES   REMARKS
BELLEVILLE     SUNNY     73  50  43 NW13G18   29.92F
CAHOKIA*       SUNNY     75  48  38 NW16      29.93F
SPARTA*        SUNNY     74  51  44 W10       29.93F
$$

ILZ064>066-069>071-074>076-080>082-084>086-088>090-092>094-202100-
SOUTH-CENTRAL ILLINOIS

CITY           SKY/WX    TMP DP  RH WIND       PRES   REMARKS
CARBONDALE     SUNNY     76  53  44 W9        29.92S HAZE
CAIRO*         SUNNY     75  54  48 S9        29.95F
EFFINGHAM*     SUNNY     72  38  29 NW16      29.89S
MARION         MOSUNNY   75  55  50 W12       29.93F
MT. VERNON     SUNNY     73  52  46 W8        29.91F
CENTRALIA*     SUNNY     73  45  36 W13G18    29.91S
SALEM*         SUNNY     75  49  39 W15       29.90F
METROPOLIS*    SUNNY     73  55  53 W10       29.94F
$$

ILZ067-068-072-073-078-083-087-091-202100-
SOUTHEAST ILLINOIS

CITY           SKY/WX    TMP DP  RH WIND       PRES   REMARKS
LAWRENCEVILLE  SUNNY     74  50  42 W17G31    29.87F
FLORA*         SUNNY     74  47  37 NW13      29.89F
FAIRFIELD*     MOSUNNY   74  51  45 W6        29.89S
HARRISBURG*    SUNNY     73  54  51 W14G20    29.92F
ROBINSON*      SUNNY     75  48  38 W10G17    29.88S
CARMI*         SUNNY     76  56  50 W10       29.89F
$$

ABBREVIATIONS USED IN REMARKS
   TC - TEMPERATURE IN CELSIUS
  WCI - WIND CHILL INDEX
   HX - HEAT INDEX
  VSB - VISIBILITY
$$




USA.gov is the U.S. government's official web portal to all federal, state and local government web resources and services.